Location: Unspecified
(42.9300°N, 71.1866°W)
Time: 05:17:06
(UTC-04:00)

Okean 3 - Visible Passes

Search period start: 30 July 2016 00:00
Search period end: 09 August 2016 00:00
Orbit: 579 x 602 km, 82.5° (Epoch: 29 July)

Date Brightness Start Highest point End Pass type
(mag) Time Alt. Az. Time Alt. Az. Time Alt. Az.
30 Jul 3.5 21:13:21 10° N 21:17:38 82° W 21:21:52 10° S visible
31 Jul 4.2 21:21:55 10° NNW 21:26:05 53° W 21:30:11 10° S visible
01 Aug 5.0 21:30:36 10° NNW 21:34:30 35° W 21:38:19 10° SSW visible
02 Aug 5.7 21:39:27 10° NW 21:42:51 23° W 21:46:13 10° SW visible
03 Aug 6.2 21:48:35 10° NW 21:51:11 16° W 21:53:45 10° WSW visible
04 Aug 6.6 21:58:37 10° WNW 21:59:28 10° W 22:00:18 10° W visible
05 Aug 3.6 20:27:02 10° N 20:31:18 83° W 20:35:30 10° S visible
06 Aug 4.3 20:35:36 10° NNW 20:39:45 53° W 20:43:50 10° S visible
07 Aug 5.2 20:44:18 10° NNW 20:48:09 35° W 20:51:58 10° SSW visible
08 Aug 5.9 20:53:09 10° NW 20:56:31 23° W 20:59:52 10° SW visible
